This is the latest recevied weather packets stored in our database for station/object N5TSS. If no packets are shown the sender has not sent any weather packets the latest 10 day(s).
| Time | Temp. | Humidity | Pressure | Rain* | Wind** | Luminosity | Snow |
|---|---|---|---|---|---|---|---|
| 1777765730 | 22.22° C | 59% | 1020.1 hPa | 0 mm | - | - | - |
| 1777765427 | 22.22° C | 58% | 1020.1 hPa | 0 mm | - | - | - |
| 1777765124 | 22.78° C | 53% | 1020.1 hPa | 0 mm | - | - | - |
| 1777764820 | 22.78° C | 52% | 1020.1 hPa | 0 mm | - | - | - |
| 1777764517 | 23.33° C | 53% | 1019.7 hPa | 0 mm | - | - | - |
| 1777764213 | 23.33° C | 52% | 1019.7 hPa | 0 mm | - | - | - |
| 1777763910 | 23.89° C | 48% | 1019.7 hPa | 0 mm | - | - | - |
| 1777763608 | 23.89° C | 49% | 1019.7 hPa | 0 mm | - | - | - |
| 1777763306 | 23.89° C | 48% | 1019.7 hPa | 0 mm | - | - | - |
| 1777763003 | 23.89° C | 49% | 1019.7 hPa | 0 mm | - | - | - |
| 1777762700 | 24.44° C | 47% | 1019.7 hPa | 0 mm | - | - | - |
| 1777762397 | 25° C | 48% | 1019.7 hPa | 0 mm | - | - | - |
| 1777762093 | 24.44° C | 47% | 1019.7 hPa | 0 mm | - | - | - |
| 1777761790 | 24.44° C | 46% | 1019.7 hPa | 0 mm | - | - | - |
| 1777761488 | 25° C | 47% | 1019.7 hPa | 0 mm | - | - | - |
| 1777761186 | 25° C | 47% | 1019.7 hPa | 0 mm | - | - | - |
| 1777760883 | 25° C | 46% | 1019.7 hPa | 0 mm | - | - | - |
| 1777760580 | 24.44° C | 45% | 1020.1 hPa | 0 mm | - | - | - |
| 1777760275 | 24.44° C | 49% | 1019.7 hPa | 0 mm | - | - | - |
| 1777759972 | 23.89° C | 48% | 1019.7 hPa | 0 mm | - | - | - |
| 1777759669 | 22.78° C | 52% | 1019.7 hPa | 0 mm | - | - | - |
| 1777759365 | 23.89° C | 50% | 1020.1 hPa | 0 mm | - | - | - |
| 1777759062 | 24.44° C | 49% | 1019.7 hPa | 0 mm | - | - | - |
| 1777758759 | 24.44° C | 49% | 1019.7 hPa | 0 mm | - | - | - |
| 1777758456 | 24.44° C | 46% | 1020.1 hPa | 0 mm | - | - | - |
* Rain latest hour (hover to see other rain measurements)
** Current wind speed in m/s (hover to see current wind gust speed)